SL-8 R/B

Satellite information

Favourite Embed

Satellite Type and Status

ROCKET BODYIN ORBIT

Key statistics

Satellite SL-8 R/B at a glance.

Uptime

15579

Days in orbit

Revolutions

≈ 14.4

Per day

Orbit

LEO

Low Earth Orbit

Inclination

74.0

Latest

Satellite identification and parameters

Extended collection of information and parameters for SL-8 R/B.

Object identification

Identified? True

Debris? False

Object name: SL-8 R/B

International designator: 1982-109B

Object number (NORAD): 13649

Object ID (CCSDS): 13649

Country: COMMONWEALTH OF INDEPENDENT STATES (CIS)

Current information (Y/N): Y

RCS size: LARGE

Orbital parameters

Period: 100.109 minutes

Inclination: 74.0009 deg

SMA: 7141.803 km

Apoapsis: 776.618 km

Periapsis: 750.719 km

RAAN: 347.5947 deg

Eccentricy: 0.0018132

Argument of periapsis: 176.7135 deg

Mean anomaly: 295.8815 deg

Mean motion: 14.38437347 rev/day

Mean motion (dot): 0.00000218 rev/day2

B* drag term: 0.000080146 1/REarth

Two-line elements (TLE)

Creation date: July 6, 2025, 10:36 p.m.

Reference frame: TEME

Reference center: EARTH

Epoch: July 6, 2025, 9:40 p.m. UTC

TLE line 0: 0 SL-8 R/B

TLE line 1: 1 13649U 82109B 25187.90308624 .00000218 00000-0 80146-4 0 9992

TLE line 2: 2 13649 74.0009 347.5947 0018132 176.7135 295.8815 14.38437347234291

Live tracking on map

Real-time ground track for satellite SL-8 R/B.

In-orbit conjunctions

A list of the most updated potential collisions computed for object SL-8 R/B.

Target Orbit TCA Probability of collision Miss distance Type
FENGYUN 1C DEB SSO 2025-05-16 05:26:46 0.0001666444 710.0 (m) DEBRIS
CZ-6A DEB LEO 2025-02-05 23:20:38 0.0004398505 217.0 (m) DEBRIS
NOAA 16 DEB SSO 2024-08-16 02:59:42 0.0001577523 889.0 (m) DEBRIS
SL-8 R/B LEO 2024-06-12 08:48:44 0.0001804504 123.0 (m) ROCKET BODY

Associated space launch

Military communications satellite

SL-8 R/B was lifted into orbit during the mission ‘Kosmos-3M | Strela-2M 30’, on board a Kosmos-3M space rocket.

The launch took place on Nov. 11, 1982, 6:14 a.m. from 132/1 (132L).

For more information about the launch, click the button.

Launch to space Kosmos-3M | Strela-2M 30
Kosmos-3M | Strela-2M 30

Agency: N/A

Status: Launch Successful

Launch date: Nov. 11, 1982, 6:14 a.m. UTC

Rocket: Kosmos-3M

Launch pad: 132/1 (132L)

Location: Plesetsk Cosmodrome, Russian Federation

...

Latest news about this satellite

There are no fresh news available about this satellite. Check back as we update our databases every day.


Newsletter sign-up

Weekly statistics, charts and insights to help you stay on top of the space industry.